Regional Weather Roundup
Issued by NWS Jackson, KY

Home | Current Version | Previous Version | Text Only | Print | Product List | Glossary Off
Versions: 1 2 3 4 5 6 7 8 9 10 11 12 13 14 15 16 17 18 19 20 21 22 23 24 25 26 27 28 29 30 31 32 33 34 35 36 37 38 39 40 41 42 43 44 45 46 47 48 49 50

000
ASUS43 KJKL 240610
RWRJKL

EAST KENTUCKY HOURLY WEATHER ROUNDUP
NATIONAL WEATHER SERVICE JACKSON KY
200 AM EDT THU MAY 24 2018

NOTE: "FAIR" INDICATES FEW OR NO CLOUDS BELOW 12,000 FEET WITH
NO SIGNIFICANT WEATHER AND/OR OBSTRUCTIONS TO VISIBILITY.

* THESE REPORTS ARE NOT UNDER NWS QUALITY CONTROL AND MAY NOT
  REPORT WEATHER SUCH AS PRECIPITATION AND FOG.

KYZ079-080-083-085-087-088-110-112-115-119-120-240700
...EASTERN KENTUCKY...

CITY           SKY/WX    TMP DP  RH WIND       PRES   REMARKS
JACKSON          N/A     63  58  83 CALM      30.17F
6HR MIN TEMP:  63; 6HR MAX TEMP:  75;

LONDON           N/A     66  62  87 NE5       30.15S
6HR MIN TEMP:  66; 6HR MAX TEMP:  79;

SOMERSET*        N/A     66  61  82 MISG      30.15S
MONTICELLO*      N/A     68  64  87 VRB6      30.15S
6HR MIN TEMP:  65; 6HR MAX TEMP:  79;

WILLIAMSBURG*    N/A     64  64 100 CALM      30.14F
MIDDLESBORO*     N/A     63  63 100 CALM      30.15S
6HR MIN TEMP:  63; 6HR MAX TEMP:  79;

HARLAN APT*    MOCLDY    63  63  99 CALM      30.16S
PIKE CO APT*     N/A     61  61 100 N6        30.18S
BIG SANDY APT*   N/A     60  60 100 CALM      30.18F
6HR MIN TEMP:  60; 6HR MAX TEMP:  74;

MOREHEAD APT*    N/A     63  55  77 VRB5      30.19F
ASHLAND*         N/A     58  57  97 CALM      30.19F
$$

KYZ035-036-041-042-044-050-067-078-099-240700
...CENTRAL KENTUCKY...

CITY           SKY/WX    TMP DP  RH WIND       PRES   REMARKS
MT STERLING*     N/A     63  59  88 E6        30.19F
FLEMING/MASON*   N/A     60  58  94 CALM      30.19F
DANVILLE*        N/A     63  59  88 CALM      30.16F
LEXINGTON        N/A     66  58  75 NE10      30.17S
6HR MIN TEMP:  64; 6HR MAX TEMP:  76;

FRANKFORT        N/A     66  56  70 NE7       30.15F
6HR MIN TEMP:  64; 6HR MAX TEMP:  79;

LOUISVILLE       N/A     72  58  61 E7        30.14S
6HR MIN TEMP:  72; 6HR MAX TEMP:  82;

LEBANON*         N/A     66  59  77 NE3       30.14F
GLASGOW*         N/A     68  61  79 NE5       30.12S
BOWLING GREEN    N/A     70  65  84 CALM      30.11S
6HR MIN TEMP:  70; 6HR MAX TEMP:  83;

$$

KYZ091>093-OHZ055-061-077-WVZ005-015-034-035-042-240700
...SOUTHERN OHIO/WEST VIRGINIA...

CITY           SKY/WX    TMP DP  RH WIND       PRES   REMARKS
COVINGTON        N/A     66  56  70 E8        30.18F
COLUMBUS         N/A     61  53  75 CALM      30.20S
DAYTON           N/A     59  53  80 E6        30.21F
WILMINGTON       N/A     59  59 100 NE5       30.20S
HUNTINGTON       N/A     59  54  83 CALM      30.18S
CHARLESTON       N/A     57  57 100 S5        30.18S
PINEVILLE*       N/A     58  57  96 MISG      30.23F FOG
BECKLEY          N/A     55  52  89 CALM      30.21F
BLUEFIELD        N/A     58  57  97 E3        30.22F
LOGAN CO APT*    N/A     61  59  94 CALM      30.19S
$$

VAZ002-007-008-TNZ017-027-036-066-071-240700
...SOUTHWEST VIRGINIA/EAST TENNESSEE...

CITY           SKY/WX    TMP DP  RH WIND       PRES   REMARKS
WISE*            N/A     61  61 100 NE3       30.22F
JONESVILLE*      N/A     63  61  94 CALM      30.17S
ABINGDON*      MOCLDY    65  63  93 E3        30.17F
BRISTOL          N/A     64  63  96 CALM      30.14S
MORRISTOWN*    PTCLDY    68  63  83 CALM      30.12S
SEVIERVILLE*   CLEAR     68  66  94 CALM      30.10F
KNOXVILLE      MOCLDY    71  65  81 NE5       30.09F
LAFOLLETTE*    CLEAR     64  63  94 CALM      30.16S
OAK RIDGE        N/A     70  66  87 CALM      30.11F
CROSSVILLE       N/A     65  61  87 NE3       30.15F
NASHVILLE      MOCLDY    70  65  84 CALM      30.10S
$$

...KEY TO REMARKS...
VSB - VISIBILITY IN MILES
WCI - WIND CHILL INDEX
HX  - HEAT INDEX

$$



USA.gov is the U.S. government's official web portal to all federal, state and local government web resources and services.